sat.trackr.live / text

‹ back to catalog

STARLINK-11727 [DTC]

NORAD 64123 · 2025-111A

PAYLOAD ACTIVE UNKNOWN

§ Identity

Operator
Country
US
Launch date
2025-05-24
Launch site
AFETR
Launch vehicle
Mass (kg)
RCS (m²)

Purposes: comms

External: N2YO · Heavens-Above · Gunter

§ Orbital elements

Epoch: 2026-09-20T22:35:59.124192Z

Period
91.67 min
Inclination
42.9992°
Eccentricity
0.0001209
Mean motion
15.70932148 rev/d
Perigee alt
355.4 km
Apogee alt
357.0 km
Semi-major
6,734.4 km
B*
1.0084e-3
RAAN
237.2542°
Arg perigee
251.7294°
Mean anomaly
108.3442°
Rev number
7,734

§ Raw data

STARLINK-11727 [DTC]1 64123U 25111A   26263.94165653  .00131522  00000+0  10084-2 0  99922 64123  42.9992 237.2542 0001209 251.7294 108.3442 15.70932148 77343

JSON: /api/v1/satellites/64123 · /tle

For live sub-satellite position, see the globe view (requires WebGL).

§ Visibility from observer

Set your observer location to see the next 7 days of passes ≥ 10°. The values pass through the URL so the page stays shareable.

No JS? Fill the form by hand. The geolocation button needs JavaScript.